Terug naar catalogus

DELTA 1 DEB

ActiefPO
NORAD 21969·DEBRIS·🇺🇸 United States

Gelanceerd Jun 12, 1975 vanaf Vandenberg Space Force Base

Loading…

Volgende Passages (komende 24 uur)

TLE

VersSource: Space-Track

Epoch: Sep 14, 2026, 08:23 UTC

1 21969U 75052JV  26257.34988757  .00000584  00000-0  10846-2 0  9997
2 21969  99.0200 218.4789 0110844 152.6706   3.4476 13.40900876711756

Volg DELTA 1 DEB in realtime met AllMySat

Download on the App Store